• Processing (Info)

  • MPEC 2023-K102 : 2023 KL1

    The following Minor Planet Electronic Circular may be linked-to from your own Web pages, but must not otherwise be redistributed electronically.

    A form allowing access to any MPEC is at the bottom of this page.


    Read MPEC 2023-K101 Read MPEC 2023-K103


    M.P.E.C. 2023-K102                                 Issued 2023 May 22, 14:41 UT
    
         The Minor Planet Electronic Circulars contain information on unusual
             minor planets, routine data on comets and natural satellites,
             and occasional editorial announcements.  They are published
        on behalf of Division F of the International Astronomical Union by the
              Minor Planet Center, Smithsonian Astrophysical Observatory,
                              Cambridge, MA 02138, U.S.A.
    			  
                 Prepared using the Tamkin Foundation Computer Network
    
                                  MPC@CFA.HARVARD.EDU
                URL https://www.minorplanetcenter.net/    ISSN 1523-6714
    
                                    2023 KL1                                 
    
    
    Observations:
         K23K01L*1C2023 05 20.29727213 48 43.758+16 15 40.28               VEK102G96
         K23K01L 1C2023 05 20.30851713 48 52.974+16 16 21.68         20.78GVEK102G96
         K23K01L 1C2023 05 20.31414213 48 57.553+16 16 42.35         20.37GVEK102G96
         K23K01L KC2023 05 20.40033213 50 09.575+16 21 51.05         20.68GVEK102I52
         K23K01L KC2023 05 20.40228813 50 11.224+16 21 58.21         21.15GVEK102I52
         K23K01L KC2023 05 20.40425413 50 12.962+16 22 04.80         20.41GVEK102I52
         K23K01L KC2023 05 20.40620713 50 14.651+16 22 11.89         20.35GVEK102I52
         K23K01L 2C2023 05 20.88227213 58 03.943+16 54 04.71         20.2 GVEK102J04
         K23K01L 2C2023 05 20.88544813 58 06.804+16 54 17.76         20.7 GVEK102J04
         K23K01L 2C2023 05 20.88863713 58 09.666+16 54 31.53         20.8 GVEK102J04
         K23K01L KC2023 05 21.11126914 01 49.71 +17 08 42.6          20.4 VuEK102H21
         K23K01L KC2023 05 21.11686014 01 54.96 +17 09 05.7          20.7 VuEK102H21
         K23K01L KC2023 05 21.12245014 02 00.20 +17 09 29.3          20.2 VuEK102H21
         K23K01L KC2023 05 21.87635214 15 39.76 +18 00 56.4          20.9 GVEK102L01
         K23K01L IC2023 05 21.87783514 15 41.38 +18 01 02.5          20.7 GVEK102L01
         K23K01L KC2023 05 21.88079814 15 44.54 +18 01 15.3          20.8 GVEK102L01
         K23K01L KC2023 05 21.88227914 15 46.13 +18 01 21.5          20.7 GVEK102L01
         K23K01L KC2023 05 22.11589114 20 28.51 +18 18 05.5          20.3 VuEK102H21
         K23K01L KC2023 05 22.12148414 20 34.78 +18 18 29.9          20.7 VuEK102H21
         K23K01L KC2023 05 22.12409414 20 37.71 +18 18 41.3          20.5 VuEK102H21
    
    Observer details:
    G96 Mt. Lemmon Survey.  Observer J. K. Hogan.  Measurers E. J. Christensen, D.
        Fay, J. B. Fazekas, D. C. Fuls, A. R. Gibbs, A. D. Grauer, H. Groeller, J.
        K. Hogan, R. A. Kowalski, S. M. Larson, G. J. Leonard, D. Rankin, R. L.
        Seaman, A. Serrano, F. C. Shelly, K. W. Wierzchos.  1.5-m reflector + 10K
        CCD.
    H21 Astronomical Research Observatory, Westfield.  Observer R. Holmes.
        Measurers T. Linder, R. Holmes, L. Horn.  0.76-m f/3.0 astrograph + CCD.
    I52 Steward Observatory, Mt. Lemmon Station.  Observer J. B. Fazekas.
        Measurers E. J. Christensen, D. Fay, J. B. Fazekas, D. C. Fuls, A. R.
        Gibbs, A. D. Grauer, H. Groeller, J. K. Hogan, R. A. Kowalski, S. M.
        Larson, G. J. Leonard, D. Rankin, R. L. Seaman, A. Serrano, F. C. Shelly,
        K. W. Wierzchos.  1.0-m prime focus + CCD.
    J04 ESA Optical Ground Station, Tenerife.  Observers D. Abreu, M. Micheli, F.
        Ocana, L. Conversi.  Measurers M. Micheli, F. Ocana, R. Kresken, M.
        Busch, A. Knofel, E. Schwab.  1.0-m f/4.4 reflector + CCD.
    L01 Visnjan Observatory, Tican.  Observer K. Korlevic.  1.0-m f/2.9 reflector
        + CCD.
    
    Orbital elements:
    2023 KL1                                                 Earth MOID = 0.0222 AU
    Epoch 2023 Feb. 25.0 TT = JDT 2460000.5                 Bell                    
    M 324.55938              (2000.0)            P               Q                  
    n   0.37023847     Peri.   73.68965     -0.33279566     +0.94299850             
    a   1.9207980      Node   176.87133     -0.87162880     -0.30722759             
    e   0.4644715      Incl.    0.98715     -0.35987538     -0.12792594             
    P   2.66           H   26.38          G   0.15           U   8                  
    Residuals in seconds of arc
    230520 G96  1.4-  0.3-    230520 J04  0.0   0.1+    230521 L01  0.2+  0.3-
    230520 G96  0.3+  0.0     230520 J04  0.2+  0.2-    230521 L01  0.3-  0.0
    230520 G96  0.5+  0.1+    230520 J04  0.3+  0.2+    230521 L01  0.4-  0.1-
    230520 I52  0.2+  0.1+    230521 H21  0.5-  0.1-    230522 H21  0.3+  0.2+
    230520 I52  0.3-  0.3+    230521 H21  0.4-  0.3-    230522 H21  0.1+  0.2+
    230520 I52  0.3+  0.0     230521 H21  0.4-  0.1+    230522 H21  0.0   0.2+
    230520 I52  0.3+  0.2+    230521 L01  0.1-  0.2-
    
    Ephemeris:
    2023 KL1                 a,e,i = 1.92, 0.46, 1                   q = 1.0286
    Date    TT    R. A. (2000) Decl.     Delta      r    Elong.  Phase     V
    2023 04 22    12 09 19.2 +03 34 06   0.1354  1.1233   149.2    27.3    23.5
    ...
    2023 05 07    12 24 00.5 +07 49 45   0.07946 1.0671   135.7    41.4    22.6
    ...
    2023 05 15    12 56 07.4 +11 46 05   0.05214 1.0465   132.3    45.6    21.8
    ...
    2023 05 21    13 59 51.8 +17 02 53   0.03405 1.0360   134.3    44.4    20.8
    2023 05 22    14 18 02.8 +18 11 39   0.03151 1.0347   135.1    43.7    20.6
    2023 05 23    14 39 37.3 +19 22 14   0.02919 1.0335   136.0    42.9    20.4
    ...
    2023 05 29    18 00 49.0 +21 10 18   0.02367 1.0290   130.9    48.1    20.1
    ...
    2023 06 06    20 59 44.0 +09 26 43   0.04033 1.0303   111.8    66.1    21.8
    ...
    2023 06 21    22 10 50.6 +01 07 57   0.08811 1.0544   113.5    62.1    23.4
    
    M. P. C. Staff               (C) Copyright 2023 MPC           M.P.E.C. 2023-K102
    


    Read MPEC 2023-K101 Read MPEC 2023-K103


    MPEC number:

    Enter an MPEC number in one of the following forms:

    • 1997-B01 (the full form)
    • J97B01 (the packed version of the full form)
    • B01 (the abbreviated form)